TimePST,TemperatureF,Dew PointF,Humidity,Sea Level PressureIn,VisibilityMPH,Wind Direction,Wind SpeedMPH,Gust SpeedMPH,PrecipitationIn,Events,Conditions,WindDirDegrees,DateUTC
12:56 AM,41.0,27.0,57,29.69,10.0,South,8.1,-,N/A,,Scattered Clouds,180,2013-02-09 08:56:00
1:56 AM,42.1,26.1,53,29.69,10.0,South,5.8,-,N/A,,Mostly Cloudy,180,2013-02-09 09:56:00
2:56 AM,42.1,27.0,55,29.68,10.0,SSE,5.8,-,N/A,,Mostly Cloudy,150,2013-02-09 10:56:00
3:56 AM,42.1,26.1,53,29.70,10.0,South,3.5,-,N/A,,Overcast,180,2013-02-09 11:56:00
4:56 AM,42.1,27.0,55,29.70,10.0,South,6.9,-,N/A,,Mostly Cloudy,190,2013-02-09 12:56:00
5:56 AM,41.0,27.0,57,29.73,10.0,South,8.1,-,N/A,,Scattered Clouds,180,2013-02-09 13:56:00
6:56 AM,41.0,27.0,57,29.75,10.0,SSW,5.8,-,N/A,,Mostly Cloudy,200,2013-02-09 14:56:00
7:56 AM,43.0,26.1,51,29.78,10.0,South,4.6,-,N/A,,Mostly Cloudy,190,2013-02-09 15:56:00
8:56 AM,45.0,25.0,46,29.80,10.0,Calm,Calm,-,N/A,,Mostly Cloudy,0,2013-02-09 16:56:00
9:56 AM,46.9,21.9,37,29.81,10.0,South,9.2,-,N/A,,Scattered Clouds,190,2013-02-09 17:56:00
10:56 AM,50.0,19.9,31,29.81,10.0,North,-9999.0,-,N/A,,Mostly Cloudy,0,2013-02-09 18:56:00
11:56 AM,52.0,19.0,27,29.81,10.0,NW,11.5,18.4,N/A,,Scattered Clouds,320,2013-02-09 19:56:00
12:56 PM,53.1,18.0,25,29.80,10.0,NW,8.1,21.9,N/A,,Scattered Clouds,310,2013-02-09 20:56:00
1:56 PM,53.1,19.0,26,29.81,10.0,West,10.4,-,N/A,,Mostly Cloudy,270,2013-02-09 21:56:00
2:56 PM,52.0,19.0,27,29.82,10.0,WNW,8.1,-,N/A,,Mostly Cloudy,300,2013-02-09 22:56:00
3:56 PM,52.0,17.1,25,29.83,10.0,WNW,9.2,-,N/A,,Mostly Cloudy,290,2013-02-09 23:56:00
4:56 PM,52.0,18.0,26,29.84,10.0,NNW,6.9,-,N/A,,Mostly Cloudy,340,2013-02-10 00:56:00
5:56 PM,51.1,17.1,26,29.85,10.0,NW,6.9,-,N/A,,Scattered Clouds,310,2013-02-10 01:56:00
6:56 PM,50.0,18.0,28,29.86,10.0,SW,3.5,-,N/A,,Scattered Clouds,220,2013-02-10 02:56:00
7:56 PM,48.0,19.0,32,29.87,10.0,South,9.2,-,N/A,,Partly Cloudy,190,2013-02-10 03:56:00
8:56 PM,46.0,19.9,35,29.89,10.0,SSW,9.2,-,N/A,,Partly Cloudy,200,2013-02-10 04:56:00
9:56 PM,45.0,19.9,37,29.90,10.0,South,5.8,-,N/A,,Partly Cloudy,190,2013-02-10 05:56:00
10:56 PM,44.1,19.9,38,29.92,10.0,South,6.9,-,N/A,,Partly Cloudy,180,2013-02-10 06:56:00
11:56 PM,46.0,17.1,31,29.92,10.0,Variable,5.8,-,N/A,,Partly Cloudy,0,2013-02-10 07:56:00